{"data":{"norad_id":49133,"epoch":"2026-05-25T03:53:57.084000Z","epoch_age_seconds":56961,"freshness":"FRESH","line1":"1 49133U 21082D   26145.16246625 -.00000606  00000+0 -42996-4 0  9990","line2":"2 49133  69.9992 101.6409 0003580 266.2720  93.8029 14.98335944257430","mean_motion":14.98335944,"eccentricity":0.000358,"inclination_deg":69.9992,"raan_deg":101.6409,"arg_perigee_deg":266.272,"mean_anomaly_deg":93.8029,"bstar":-4.2996e-5,"rev_number":25743,"period_min":96.106617862729,"perigee_km":569.54934720104,"apogee_km":574.52567214997,"semimajor_km":6950.1745096755,"source":"CELESTRAK","updated_at":"2026-05-25T13:38:16.764900Z"}}